Flag for Austria Weather past 2 weeks in Mattersburg, Burgenland, Austria

Now
34 °F

Clear.


Feels Like: 34 °F
Forecast: 35 / 55 °F
Wind: 2 mph from Northwest

Location: Eisenstadt

Current Time: Apr 19, 2015 at 3:27:52 AM

Latest Report: Apr 19, 2015 at 2:00 AM


Visibility: 9 mi

Pressure: 30.25 "Hg

Humidity: 83%

Dew point: 29 °F

Location of MattersburgLocation

Historic Weather in Mattersburg — Graph

°F

Mattersburg temperature yesterday

Maximum temperature yesterday: 51 °F (at 3:00 PM)
Minimum temperature yesterday: 36 °F (at 11:00 PM)
Average temperature yesterday: 46 °F

Past Weeks' High & Low Weather Summary

 TemperatureHumidityPressure
High81 °F (Apr 16, 2:00 PM)94% (Apr 17, 8:00 PM)30.48 "Hg (Apr 17, 8:00 PM)
Low32 °F (Apr 4, 6:00 AM)15% (Apr 16, 2:00 PM)29.79 "Hg (Apr 17, 5:00 PM)
Average52 °F55%30.18 "Hg
* Reported Apr 4 2:00 AM — Apr 19 2:00 AM, Mattersburg, Weather by CustomWeather, © 2015

Note: Actual official high and low records may vary slightly from our data, if they occured in-between our weather recording intervals... More about our weather records

Advertising

Mattersburg weather history for previous 24 hours

 ConditionsComfort  
Time TempWeatherWind HumidityBarometerVisibility
2:00 AM
Sun, Apr 19
34 °FClear.2 mph83%30.25 "Hg9 mi
1:00 AM35 °FChilly.3 mph83%30.26 "HgN/A
12:00 AM36 °FChilly.2 mph82%30.25 "HgN/A
11:00 PM
Sat, Apr 18
36 °FClear.2 mph84%30.24 "Hg9 mi
10:00 PM39 °FChilly.2 mph79%30.23 "HgN/A
9:00 PM41 °FQuite cool.2 mph70%30.22 "HgN/A
8:00 PM46 °FPassing clouds.2 mph50%30.18 "Hg12 mi
7:00 PM49 °FPartly sunny.3 mph42%30.16 "Hg12 mi
6:00 PM49 °FCool.3 mph42%30.15 "HgN/A
5:00 PM50 °FCool.3 mph42%30.14 "HgN/A
4:00 PM49 °FCool.3 mph50%30.13 "HgN/A
3:00 PM51 °FCool.7 mph49%30.13 "HgN/A
2:00 PM45 °FRain. Overcast.3 mph72%30.14 "Hg12 mi
1:00 PM47 °FCool.9 mph57%30.13 "HgN/A
12:00 PM48 °FCool.3 mph63%30.11 "HgN/A
11:00 AM48 °FCool.5 mph60%30.11 "HgN/A
10:00 AM47 °FCool.2 mph62%30.08 "HgN/A
9:00 AM45 °FCool.5 mph65%30.08 "HgN/A
8:00 AM44 °FPartly sunny.3 mph67%30.08 "Hg11 mi
7:00 AM44 °FOvercast.5 mph67%30.05 "Hg11 mi
6:00 AM45 °FOvercast.5 mph65%30.03 "Hg9 mi
4:00 AM46 °FOvercast.6 mph66%29.99 "Hg9 mi
3:00 AM46 °FCool.5 mph69%29.98 "HgN/A
Weather by CustomWeather, © 2015

See weather overviewHow to use our weather pages